Tracking 28091 objects as of 29-Sep-2023
HD Live streaming from Space Station
objects crossing your sky now

COSMOS 1375 DEB

Track COSMOS 1375 DEB now!
10-day predictions


NORAD ID: 16385
Int'l Code: 1982-055Z
Perigee: 940.4 km
Apogee: 966.4 km
Inclination: 65.8 °
Period: 104.0 minutes
Semi major axis: 7324 km
RCS: 0.0186 m2 (small)
Launch date: June 6, 1982
Source: Commonwealth of Independent States (former USSR) (CIS)
Launch site: PLESETSK MISSILE AND SPACE COMPLEX (PKMTR)

Note: This is SATELLITE DEBRIS
Your satellite tracking list
Your tracking list is empty




NASA's NSSDC Master Catalog

Two Line Element Set (TLE):
1 16385U 82055Z   23271.74318793  .00000940  00000-0  90240-3 0  9991
2 16385  65.8283 144.0594 0017739  44.3588  17.6492 13.84976853908766
Source of the keplerian elements: AFSPC